User: anonymous   Login
Location: Unspecified
(0.0000°N, 0.0000°E)
Time: 16:05:06
(UTC+00:00)
Language:

TACSAT 4 - Orbit

View from above orbital plane
View from above orbital plane
View from above satellite
View from above satellite

Ground track
Ground track

The orbit data is extracted from the following two-line orbital elements,

1 37818U 11052A   17116.60885292 +.00000479 +00000-0 +12015-2 0  9993
2 37818 063.2467 146.5746 4536736 212.9767 335.9014 06.02614520122734
Epoch (UTC): 26 April 2017 14:36:44
Eccentricity: 0.4536736
inclination: 63.2467°
perigee height: 591 km
apogee height: 12164 km
right ascension of ascending node: 146.5746°
argument of perigee: 212.9767°
revolutions per day: 6.02614520
mean anomaly at epoch: 335.9014°
orbit number at epoch: 12273

The dashed part of the orbit path shows where the satellite is in the earth's shadow,  

DLR